Hourly Data Report for April 14, 2018

KENORA A
ONTARIO
Current Station Operator: NAVCAN

49°47'18.000" N
94°21'47.000" W
409.70 m
6034076
71850
YQK

Download Data

Hourly Data (April 2018)
Hourly Data Report for April 14, 2018
TIME
LST
Temp Definition
°C
Dew Point Definition
°C
Rel Hum Definition
%
Precip. Amount Definition
mm

Wind Dir Definition
10's deg

Wind Spd Definition
km/h
Visibility Definition
km
Stn Press Definition
kPa
Hmdx Definition


Wind Chill Definition


Weather Definition


00:00 -6.4 -16.4 45   5 13 24.1 98.04   -12 Clear
01:00 -6.9 -16.2 48   5 16 24.1 98.00   -13 LegendNANA
02:00 -7.6 -16.4 50   5 18 24.1 98.08   -14 LegendNANA
03:00 -8.4 -16.2 54   7 19 24.1 98.14   -16 Clear
04:00 -9.4 -16.4 57   8 17 24.1 98.20   -16 LegendNANA
05:00 -10.3 -17.1 58   7 14 24.1 98.27   -17 LegendNANA
06:00 -10.8 -17.4 59   6 14 24.1 98.27   -17 Mostly Cloudy
07:00 -10.0 -16.9 57   6 16 24.1 98.28   -17 LegendNANA
08:00 -7.8 -16.5 50   8 21 24.1 98.29   -15 LegendNANA
09:00 -6.1 -16.4 44   11 20 24.1 98.45   -13 Mostly Cloudy
10:00 -5.0 -15.4 45   9 19 24.1 98.43   -11 LegendNANA
11:00 -3.9 -16.0 39   6 19 24.1 98.34   -10 LegendNANA
12:00 -2.3 -14.5 39   4 15 24.1 98.30   -7 Mostly Cloudy
13:00 -1.7 -15.0 36   9 16 24.1 98.27   -7 LegendNANA
14:00 0.0 -12.4 39   10 17 24.1 98.24   -5 LegendNANA
15:00 0.4 -13.1 36   8 18 24.1 98.18     Mostly Cloudy
16:00 0.0 -15.0 32   11 27 24.1 98.18   -6 LegendNANA
17:00 -0.3 -13.5 37   10 24 24.1 98.17   -6 LegendNANA
18:00 -1.0 -14.4 36   10 22 24.1 98.23   -7 Mostly Cloudy
19:00 -2.5 -13.1 44   9 13 24.1 98.26   -7 LegendNANA
20:00 -3.2 -13.9 43   7 12 24.1 98.29   -8 LegendNANA
21:00 -3.8 -13.6 47   8 14 24.1 98.33   -9 Mainly Clear
22:00 -3.8 -14.4 44   6 16 24.1 98.30   -9 LegendNANA
23:00 -4.1 -14.1 46   9 18 24.1 98.26   -10 LegendNANA

Notes on Data Quality.

Legend

  • E = Estimated
  • M = Missing
  • NA = Not Available*
  • [empty] = Indicates an unobserved value
Date modified: